カタログに戻る

STARLINK-35219

運用中通信VLEO
NORAD 66443·PAYLOAD·🇺🇸 United States

打ち上げ Nov 11, 2025 から Cape Canaveral Space Force Station

Loading…

次のパス (今後24時間)

TLE

最新Source: CelesTrak SupGP

元期: Sep 14, 2026, 23:12 UTC

1 66443C 25259X   26257.96715278  .00034177  00000+0  12380-2 0  2577
2 66443  42.9998 285.7941 0001572 262.9356 121.1184 15.27558112    16

AllMySatでSTARLINK-35219をリアルタイム追跡

Download on the App Store